Location: La Fredeussais
(48.1780°N, 1.3980°W)
Time: 09:29:44
(UTC+00:00)

Cosmos 1536 - Pass Details

Date: 09 May 2021
Orbit: 539 x 558 km, 82.5° (Epoch: 12 June)

Event Time Altitude Azimuth Distance (km) Brightness Sun altitude
Rises 22:48:00 0° 344° (NNW) 2,749 7.9 -22.2°
Reaches altitude 10° 22:50:15 10° 338° (NNW) 1,846 6.6 -22.3°
Maximum altitude 22:54:06 43° 267° (W) 785 3.6 -22.5°
Enters shadow 22:54:32 41° 248° (WSW) 805 3.5 -22.5°
